• în România
  • Lista ţărilor
  • Pe 7 zile
  • Temperatura apei
  • Hartă satelitară
  • Meteo pe hartă
  • Widget-uri
  • user-avatar
    Intrare

    Meteo pe oră la Mérida

    Astăzi, 25 Iunie, Luni

    Timp Temperatura Precipitaţii Vânt Presiune Umiditate
    00:00 +14°C° 0,1 mm 2 m/s 596 mmHg 72%
    01:00 +14°C° 0 mm 2 m/s 596 mmHg 73%
    02:00 +14°C° 0,5 mm 2 m/s 596 mmHg 76%
    03:00 +13°C° 0,5 mm 2 m/s 596 mmHg 78%
    04:00 +13°C° 0,5 mm 2 m/s 595 mmHg 81%
    05:00 +13°C° 1,4 mm 2 m/s 596 mmHg 82%
    06:00 +13°C° 1,4 mm 2 m/s 596 mmHg 84%
    07:00 +14°C° 1,4 mm 2 m/s 597 mmHg 86%
    08:00 +14°C° 1,2 mm 1 m/s 597 mmHg 86%
    09:00 +14°C° 1,2 mm 1 m/s 597 mmHg 86%
    10:00 +15°C° 1,2 mm 1 m/s 598 mmHg 86%
    11:00 +16°C° 0,5 mm 1 m/s 597 mmHg 82%
    12:00 +16°C° 0,5 mm 1 m/s 597 mmHg 79%
    13:00 +17°C° 0,5 mm 2 m/s 597 mmHg 76%
    14:00 +18°C° 0,6 mm 1 m/s 597 mmHg 76%
    15:00 +18°C° 0,6 mm 1 m/s 596 mmHg 77%
    16:00 +16°C° 0,6 mm 1 m/s 596 mmHg 78%
    17:00 +16°C° 0,5 mm 1 m/s 595 mmHg 79%
    18:00 +15°C° 0,5 mm 1 m/s 595 mmHg 80%
    19:00 +14°C° 0,5 mm 1 m/s 595 mmHg 82%
    20:00 +14°C° 0,6 mm 1 m/s 595 mmHg 80%
    21:00 +14°C° 0,6 mm 2 m/s 596 mmHg 79%
    22:00 +14°C° 0,6 mm 2 m/s 596 mmHg 78%
    23:00 +14°C° 0,9 mm 2 m/s 596 mmHg 79%

    Mâine, 26 Iunie, Marţi

    Timp Temperatura Precipitaţii Vânt Presiune Umiditate
    00:00 +13°C° 0,9 mm 2 m/s 596 mmHg 80%
    01:00 +13°C° 0,9 mm 2 m/s 595 mmHg 81%
    02:00 +13°C° 0,3 mm 2 m/s 595 mmHg 81%
    03:00 +13°C° 0,3 mm 2 m/s 595 mmHg 81%
    04:00 +13°C° 0,3 mm 2 m/s 595 mmHg 82%
    05:00 +13°C° 0,1 mm 1 m/s 595 mmHg 81%
    06:00 +14°C° 0,1 mm 1 m/s 596 mmHg 80%
    07:00 +14°C° 0,1 mm 1 m/s 597 mmHg 79%
    08:00 +15°C° 0,8 mm 1 m/s 597 mmHg 79%
    09:00 +15°C° 0,8 mm 1 m/s 597 mmHg 80%
    10:00 +15°C° 0,8 mm 1 m/s 598 mmHg 80%
    11:00 +16°C° 1 mm 1 m/s 597 mmHg 79%
    12:00 +16°C° 1 mm 1 m/s 597 mmHg 78%
    13:00 +18°C° 1 mm 1 m/s 597 mmHg 77%
    14:00 +18°C° 0,4 mm 1 m/s 597 mmHg 75%
    15:00 +18°C° 0,4 mm 1 m/s 596 mmHg 74%
    16:00 +19°C° 0,4 mm 1 m/s 596 mmHg 72%
    17:00 +16°C° 0,2 mm 1 m/s 596 mmHg 75%
    18:00 +15°C° 0,2 mm 1 m/s 595 mmHg 78%
    19:00 +14°C° 0,2 mm 1 m/s 595 mmHg 82%
    20:00 +14°C° 0,3 mm 1 m/s 596 mmHg 80%
    21:00 +14°C° 0,3 mm 1 m/s 596 mmHg 78%
    22:00 +14°C° 0,3 mm 2 m/s 597 mmHg 77%
    23:00 +14°C° 0,6 mm 2 m/s 596 mmHg 79%

    Poimâine, 27 Iunie, Miercuri

    Timp Temperatura Precipitaţii Vânt Presiune Umiditate
    00:00 +14°C° 0,6 mm 2 m/s 596 mmHg 80%
    01:00 +14°C° 0,6 mm 2 m/s 596 mmHg 82%
    02:00 +13°C° 0,4 mm 2 m/s 595 mmHg 82%
    03:00 +13°C° 0,4 mm 2 m/s 595 mmHg 83%
    04:00 +13°C° 0,4 mm 2 m/s 595 mmHg 83%
    05:00 +13°C° 0,1 mm 2 m/s 596 mmHg 82%
    06:00 +14°C° 0,1 mm 1 m/s 596 mmHg 80%
    07:00 +15°C° 0,1 mm 1 m/s 597 mmHg 79%
    08:00 +16°C° 0,2 mm 2 m/s 597 mmHg 75%
    09:00 +17°C° 0,2 mm 2 m/s 598 mmHg 71%
    10:00 +18°C° 0,2 mm 2 m/s 599 mmHg 67%
    11:00 +17°C° 1,1 mm 2 m/s 598 mmHg 71%
    12:00 +18°C° 1,1 mm 1 m/s 597 mmHg 76%
    13:00 +16°C° 1,1 mm 1 m/s 596 mmHg 80%
    14:00 +16°C° 0,4 mm 1 m/s 596 mmHg 77%
    15:00 +18°C° 0,4 mm 1 m/s 596 mmHg 75%
    16:00 +18°C° 0,4 mm 1 m/s 596 mmHg 73%
    17:00 +16°C° 0,3 mm 1 m/s 596 mmHg 75%
    18:00 +16°C° 0,3 mm 2 m/s 596 mmHg 77%
    19:00 +15°C° 0,3 mm 2 m/s 596 mmHg 80%
    20:00 +15°C° 0,4 mm 2 m/s 596 mmHg 79%
    21:00 +15°C° 0,4 mm 2 m/s 596 mmHg 78%
    22:00 +15°C° 0,4 mm 2 m/s 597 mmHg 77%
    23:00 +14°C° 0,4 mm 2 m/s 596 mmHg 78%

    28 Iunie, Joi

    Timp Temperatura Precipitaţii Vânt Presiune Umiditate
    00:00 +14°C° 0,4 mm 2 m/s 596 mmHg 79%
    01:00 +14°C° 0,4 mm 2 m/s 596 mmHg 81%
    02:00 +14°C° 0,8 mm 2 m/s 595 mmHg 82%
    03:00 +14°C° 0,8 mm 2 m/s 595 mmHg 83%
    04:00 +13°C° 0,8 mm 2 m/s 595 mmHg 84%
    05:00 +13°C° 2 mm 2 m/s 596 mmHg 85%
    06:00 +14°C° 2 mm 2 m/s 596 mmHg 86%
    07:00 +14°C° 2 mm 2 m/s 596 mmHg 87%
    08:00 +14°C° 0,6 mm 2 m/s 597 mmHg 83%
    09:00 +15°C° 0,6 mm 2 m/s 597 mmHg 79%
    10:00 +16°C° 0,6 mm 2 m/s 598 mmHg 74%
    11:00 +18°C° 0,1 mm 2 m/s 598 mmHg 67%
    12:00 +19°C° 0,1 mm 2 m/s 598 mmHg 60%
    13:00 +20°C° 0,1 mm 2 m/s 598 mmHg 53%
    14:00 +20°C° 0,1 mm 2 m/s 597 mmHg 54%
    15:00 +20°C° 0,1 mm 2 m/s 597 mmHg 55%
    16:00 +20°C° 0,1 mm 2 m/s 596 mmHg 56%
    17:00 +18°C° 0 mm 2 m/s 596 mmHg 61%
    18:00 +16°C° 0 mm 2 m/s 595 mmHg 66%
    19:00 +14°C° 0 mm 1 m/s 595 mmHg 71%
    20:00 +14°C° 0 mm 2 m/s 595 mmHg 67%
    21:00 +14°C° 0 mm 2 m/s 596 mmHg 64%
    22:00 +14°C° 0 mm 2 m/s 596 mmHg 60%
    23:00 +14°C° 0,2 mm 2 m/s 596 mmHg 63%

    29 Iunie, Vineri

    Timp Temperatura Precipitaţii Vânt Presiune Umiditate
    00:00 +14°C° 0,2 mm 2 m/s 596 mmHg 65%
    01:00 +13°C° 0,2 mm 2 m/s 595 mmHg 68%
    02:00 +13°C° 0,5 mm 2 m/s 595 mmHg 71%
    03:00 +13°C° 0,5 mm 2 m/s 595 mmHg 74%
    04:00 +13°C° 0,5 mm 2 m/s 595 mmHg 77%
    05:00 +14°C° 0,6 mm 1 m/s 596 mmHg 77%
    06:00 +14°C° 0,6 mm 1 m/s 596 mmHg 77%
    07:00 +14°C° 0,6 mm 1 m/s 597 mmHg 77%
    08:00 +15°C° 0,2 mm 1 m/s 597 mmHg 75%
    09:00 +16°C° 0,2 mm 2 m/s 598 mmHg 73%
    10:00 +18°C° 0,2 mm 2 m/s 598 mmHg 70%
    11:00 +18°C° 0,2 mm 2 m/s 598 mmHg 68%
    12:00 +19°C° 0,2 mm 2 m/s 598 mmHg 65%
    13:00 +20°C° 0,2 mm 2 m/s 598 mmHg 62%
    14:00 +19°C° 0,3 mm 2 m/s 597 mmHg 64%
    15:00 +19°C° 0,3 mm 2 m/s 597 mmHg 66%
    16:00 +19°C° 0,3 mm 2 m/s 596 mmHg 67%
    17:00 +18°C° 0,4 mm 1 m/s 596 mmHg 72%
    18:00 +16°C° 0,4 mm 1 m/s 596 mmHg 77%
    19:00 +15°C° 0,4 mm 1 m/s 596 mmHg 82%
    20:00 +15°C° 0,1 mm 1 m/s 596 mmHg 80%
    21:00 +14°C° 0,1 mm 2 m/s 596 mmHg 78%
    22:00 +14°C° 0,1 mm 2 m/s 596 mmHg 75%
    23:00 +14°C° 0,4 mm 2 m/s 596 mmHg 76%

    30 Iunie, Sâmbătă

    Timp Temperatura Precipitaţii Vânt Presiune Umiditate
    00:00 +14°C° 0,4 mm 2 m/s 595 mmHg 77%
    01:00 +13°C° 0,4 mm 2 m/s 595 mmHg 77%
    02:00 +13°C° 1,3 mm 2 m/s 595 mmHg 79%
    03:00 +13°C° 1,3 mm 2 m/s 595 mmHg 82%
    04:00 +13°C° 1,3 mm 2 m/s 595 mmHg 84%
    05:00 +13°C° 0,7 mm 2 m/s 596 mmHg 84%
    06:00 +14°C° 0,7 mm 2 m/s 596 mmHg 84%
    07:00 +14°C° 0,7 mm 2 m/s 597 mmHg 84%
    08:00 +15°C° 0,5 mm 2 m/s 597 mmHg 80%
    09:00 +16°C° 0,5 mm 2 m/s 597 mmHg 76%
    10:00 +17°C° 0,5 mm 2 m/s 598 mmHg 73%
    11:00 +18°C° 0,1 mm 2 m/s 598 mmHg 66%
    12:00 +19°C° 0,1 mm 2 m/s 598 mmHg 59%
    13:00 +20°C° 0,1 mm 2 m/s 598 mmHg 53%
    14:00 +20°C° 0,1 mm 2 m/s 597 mmHg 51%
    15:00 +20°C° 0,1 mm 2 m/s 597 mmHg 49%
    16:00 +20°C° 0,1 mm 2 m/s 597 mmHg 48%
    17:00 +18°C° 0 mm 2 m/s 596 mmHg 49%
    18:00 +16°C° 0 mm 2 m/s 595 mmHg 50%
    19:00 +14°C° 0 mm 2 m/s 595 mmHg 52%
    20:00 +13°C° 0 mm 2 m/s 595 mmHg 46%
    21:00 +13°C° 0 mm 2 m/s 595 mmHg 41%
    22:00 +13°C° 0 mm 2 m/s 595 mmHg 35%
    23:00 +13°C° 0 mm 2 m/s 595 mmHg 34%
    Arată mai mult